Roanoke Regional Woodrum Field
KROA : now visible

Airfield :











YOU CAN JOIN US ON...

 
LOGIN :

Register | Disclaimer

   EN    FR    IT 

 









Legend :    VFR   Marginal VFR   IFR   Intensive IFR   Very Intensive IFR
Visi :
Ceiling :
>= 8 km
>= 3000ft
5 to 8 km
1000 to 3000 ft
1500m to 5 km
500 to 1000 ft
800 to 1500m
200 to 500 ft
< 800m
< 200 ft
Symbols :   Thunderstorms  Fog  Heavy snow  Heavy precipitations  Wind > 20 kt






- Airport Elevation : 1175 ft
- IATA code : ROA


KROA - Roanoke Regional Woodrum Field

CURRENT METAR :
  • 121654Z 04003KT 10SM BKN095 12/M02 A3031 RMK AO2 SLP262 T01171022

EXPIRED METARs :
  • 121554Z 32006KT 10SM BKN080 OVC090 11/M03 A3033 RMK AO2 SLP269 T01111028
  • 121454Z 00000KT 10SM OVC085 10/M03 A3033 RMK AO2 SLP269 T01001033 50013

TAF KROA
Valid from the 12 at 12:00 until the 13 at 12:00 UTC


121120Z 1212/1312 01007KT P6SM OVC080
FM121800 02004KT P6SM BKN180
FM122300 05005KT P6SM SCT150
KZDC FIR / North America



MET'MAP, your aeronautical weather chart ! - Copyright ORBIFLY December 2007 - Disclaimer

ORBIFLY MET'MAP TEAM :

Programming & Development : Alexandra Zaïnal
Concept & original design : Baudouin d'Aumeries
Assistance for programming : Marc-Olivier Méhu
Technical & hardware support : Manuel Goepfert

Contact : metmap@orbifly.com




SOURCES & CREDITS :

   NOAA       Earth
Advisory